EW9959 Weather Reports


time (UTC)temp
F
wind
direction
speed
knots
gust
knots
rain 1hr
in
rain 24hr
in
rain mn
in
humidity
%
barometer
mb
20260505170905 78 63 2.6 7.0 0.00 0.00 0.00 40 988.4
20260505160905 78 339 4.3 6.1 0.00 0.00 0.00 43 988.4
20260505160404 78 321 2.6 7.0 0.00 0.00 0.00 45 988.5
20260505150905 74 190 0.9 1.7 0.00 0.00 0.00 54 989.0
20260505150405 75 259 1.7 4.3 0.00 0.00 0.00 51 988.9
20260505140406 65 309 1.7 2.6 0.00 0.00 0.00 70 989.1
20260505120405 48 270 0.0 1.7 0.00 0.00 0.00 99 988.2
20260505110904 48 297 0.9 1.7 0.00 0.00 0.00 98 987.3
20260505110404 48 258 0.9 1.7 0.00 0.00 0.00 97 987.4
20260505100905 49 231 0.9 1.7 0.00 0.00 0.00 94 987.2
20260505100405 48 270 0.9 1.7 0.00 0.00 0.00 96 987.2
20260505090905 47 202 0.0 0.0 0.00 0.00 0.00 96 987.3
20260505090405 47 189 0.0 0.9 0.00 0.00 0.00 95 987.7
20260505080904 46 261 0.9 1.7 0.00 0.00 0.00 98 987.6
20260505080405 47 203 0.0 0.0 0.00 0.00 0.00 97 987.3
20260505070905 48 185 0.9 0.9 0.00 0.00 0.00 93 987.5
20260505070405 49 202 0.9 1.7 0.00 0.00 0.00 93 987.3
20260505060905 50 265 0.9 1.7 0.00 0.00 0.00 92 987.4
20260505060405 51 281 0.0 1.7 0.00 0.00 0.00 89 987.5
20260505050904 51 179 0.0 0.0 0.00 0.00 0.00 89 987.8
20260505050406 51 180 0.0 0.9 0.00 0.00 0.00 87 987.7
20260505040904 53 180 0.9 0.9 0.00 0.00 0.00 82 987.6
20260505040404 53 194 0.0 1.7 0.00 0.00 0.00 82 987.6
20260505030904 55 180 0.0 0.0 0.00 0.00 0.00 80 987.8
20260505030405 55 180 0.9 1.7 0.00 0.00 0.00 80 987.6
20260505020904 57 180 0.9 0.9 0.00 0.00 0.00 74 987.7
20260505020405 58 180 0.0 2.6 0.00 0.00 0.00 76 987.5
20260505010905 60 180 0.0 0.0 0.00 0.00 0.00 75 987.0
20260505010406 61 180 0.0 0.9 0.00 0.00 0.00 74 986.9
20260505000904 69 197 0.0 0.9 0.00 0.00 0.00 56 986.5
20260504230904 76 211 1.7 5.2 0.00 0.00 0.00 43 986.7
20260504230406 78 303 1.7 6.1 0.00 0.00 0.00 40 986.7
20260504220904 79 244 2.6 4.3 0.00 0.00 0.00 37 986.9
20260504220405 78 199 2.6 5.2 0.00 0.00 0.00 38 986.9
20260504210904 79 305 2.6 5.2 0.00 0.00 0.00 37 986.8
20260504210405 77 340 1.7 7.8 0.00 0.00 0.00 41 987.0
20260504200904 78 248 2.6 4.3 0.00 0.00 0.00 37 987.4
20260504200404 79 240 1.7 7.8 0.00 0.00 0.00 37 987.6
20260504190905 77 137 1.7 2.6 0.00 0.00 0.00 38 988.5
20260504190405 78 262 2.6 6.1 0.00 0.00 0.00 37 988.5
20260504180904 79 330 2.6 4.3 0.00 0.00 0.00 37 989.3
20260504180404 77 214 1.7 7.0 0.00 0.00 0.00 39 989.6